| time (UTC) | temp F | wind direction | speed MPH | gust MPH | rain 1hr in | rain 24hr in | rain mn in | humidity % | barometer mb |
| 20260901124002 | 58 | 182 | 0.0 | 1.0 | 0.00 | 0.00 | 0.00 | 85 | 1009.3 |
| 20260901123502 | 58 | 0 | 0.0 | 0.0 | 0.00 | 0.00 | 0.00 | 85 | 1009.3 |
| 20260901123024 | 58 | 0 | 0.0 | 0.0 | 0.00 | 0.00 | 0.00 | 85 | 1009.3 |
| 20260901122523 | 58 | 202 | 0.0 | 1.0 | 0.00 | 0.00 | 0.00 | 85 | 1009.3 |
| 20260901122002 | 58 | 202 | 0.0 | 1.0 | 0.00 | 0.00 | 0.00 | 85 | 1009.4 |
| 20260901121503 | 58 | 205 | 0.0 | 1.0 | 0.00 | 0.00 | 0.00 | 85 | 1009.4 |
| 20260901121003 | 58 | 205 | 0.0 | 1.0 | 0.00 | 0.00 | 0.00 | 85 | 1009.4 |
| 20260901120502 | 58 | 0 | 0.0 | 0.0 | 0.00 | 0.00 | 0.00 | 86 | 1009.4 |
| 20260901120024 | 58 | 0 | 0.0 | 0.0 | 0.00 | 0.00 | 0.00 | 86 | 1009.5 |
| 20260901115502 | 58 | 0 | 0.0 | 0.0 | 0.00 | 0.00 | 0.00 | 86 | 1009.4 |
| 20260901115002 | 58 | 0 | 0.0 | 0.0 | 0.00 | 0.00 | 0.00 | 86 | 1009.4 |
| 20260901114503 | 58 | 173 | 0.0 | 2.0 | 0.00 | 0.00 | 0.00 | 86 | 1009.4 |
| 20260901114003 | 58 | 173 | 0.0 | 2.0 | 0.00 | 0.00 | 0.00 | 86 | 1009.4 |
| 20260901113503 | 58 | 0 | 0.0 | 0.0 | 0.00 | 0.00 | 0.00 | 87 | 1009.4 |
| 20260901113002 | 58 | 0 | 0.0 | 0.0 | 0.00 | 0.00 | 0.00 | 87 | 1009.4 |
| 20260901112524 | 57 | 162 | 0.0 | 2.0 | 0.00 | 0.00 | 0.00 | 87 | 1009.3 |
| 20260901112024 | 57 | 162 | 0.0 | 2.0 | 0.00 | 0.00 | 0.00 | 87 | 1009.3 |
| 20260901111503 | 57 | 0 | 0.0 | 0.0 | 0.00 | 0.00 | 0.00 | 87 | 1009.3 |
| 20260901111003 | 57 | 157 | 0.0 | 3.0 | 0.00 | 0.00 | 0.00 | 87 | 1009.3 |
| 20260901110524 | 57 | 158 | 0.0 | 3.0 | 0.00 | 0.00 | 0.00 | 87 | 1009.3 |
| 20260901110003 | 57 | 174 | 0.0 | 1.0 | 0.00 | 0.00 | 0.00 | 87 | 1009.2 |
| 20260901105524 | 57 | 211 | 0.0 | 1.0 | 0.00 | 0.00 | 0.00 | 87 | 1009.2 |
| 20260901105023 | 57 | 211 | 0.0 | 1.0 | 0.00 | 0.00 | 0.00 | 87 | 1009.2 |
| 20260901104503 | 57 | 0 | 0.0 | 0.0 | 0.00 | 0.00 | 0.00 | 87 | 1009.1 |
| 20260901104003 | 57 | 0 | 0.0 | 0.0 | 0.00 | 0.00 | 0.00 | 86 | 1009.1 |
| 20260901103503 | 57 | 0 | 0.0 | 0.0 | 0.00 | 0.00 | 0.00 | 86 | 1009.1 |
| 20260901103002 | 57 | 0 | 0.0 | 0.0 | 0.00 | 0.00 | 0.00 | 86 | 1009.0 |
| 20260901102502 | 57 | 199 | 0.0 | 1.0 | 0.00 | 0.00 | 0.00 | 86 | 1009.0 |
| 20260901102003 | 57 | 188 | 0.0 | 3.0 | 0.00 | 0.00 | 0.00 | 86 | 1009.0 |
| 20260901101502 | 57 | 186 | 0.0 | 3.0 | 0.00 | 0.00 | 0.00 | 86 | 1009.0 |
| 20260901101003 | 57 | 190 | 0.0 | 1.0 | 0.00 | 0.00 | 0.00 | 86 | 1009.0 |
| 20260901100503 | 58 | 0 | 0.0 | 0.0 | 0.00 | 0.00 | 0.00 | 86 | 1009.1 |
| 20260901100003 | 58 | 0 | 0.0 | 0.0 | 0.00 | 0.00 | 0.00 | 85 | 1009.1 |
| 20260901095503 | 58 | 0 | 0.0 | 0.0 | 0.00 | 0.00 | 0.00 | 85 | 1009.1 |
| 20260901095003 | 58 | 126 | 0.0 | 1.0 | 0.00 | 0.00 | 0.00 | 85 | 1009.0 |
| 20260901094503 | 58 | 126 | 0.0 | 1.0 | 0.00 | 0.00 | 0.00 | 85 | 1009.0 |
| 20260901094002 | 58 | 0 | 0.0 | 0.0 | 0.00 | 0.00 | 0.00 | 84 | 1009.0 |
| 20260901093502 | 58 | 191 | 0.0 | 2.0 | 0.00 | 0.00 | 0.00 | 84 | 1009.0 |
| 20260901093003 | 58 | 192 | 0.0 | 2.0 | 0.00 | 0.00 | 0.00 | 84 | 1008.9 |
| 20260901092503 | 58 | 187 | 0.0 | 1.0 | 0.00 | 0.00 | 0.00 | 84 | 1008.9 |
| 20260901092024 | 58 | 187 | 0.0 | 1.0 | 0.00 | 0.00 | 0.00 | 84 | 1008.8 |
| 20260901091524 | 58 | 187 | 0.0 | 1.0 | 0.00 | 0.00 | 0.00 | 83 | 1008.8 |
| 20260901091003 | 59 | 0 | 0.0 | 0.0 | 0.00 | 0.00 | 0.00 | 83 | 1008.7 |
| 20260901090502 | 59 | 0 | 0.0 | 0.0 | 0.00 | 0.00 | 0.00 | 83 | 1008.7 |
| 20260901090004 | 59 | 0 | 0.0 | 0.0 | 0.00 | 0.00 | 0.00 | 83 | 1008.6 |
| 20260901085503 | 59 | 179 | 0.0 | 2.0 | 0.00 | 0.00 | 0.00 | 83 | 1008.6 |
| 20260901085003 | 59 | 183 | 0.0 | 2.0 | 0.00 | 0.00 | 0.00 | 83 | 1008.5 |
| 20260901084524 | 59 | 181 | 0.0 | 4.0 | 0.00 | 0.00 | 0.00 | 83 | 1008.5 |
| 20260901084003 | 59 | 181 | 0.0 | 4.0 | 0.00 | 0.00 | 0.00 | 83 | 1008.5 |
| 20260901083503 | 59 | 0 | 0.0 | 0.0 | 0.00 | 0.00 | 0.00 | 83 | 1008.5 |
| 20260901083003 | 59 | 0 | 0.0 | 0.0 | 0.00 | 0.00 | 0.00 | 83 | 1008.5 |
| 20260901082503 | 59 | 193 | 0.0 | 2.0 | 0.00 | 0.00 | 0.00 | 83 | 1008.5 |
| 20260901082003 | 59 | 210 | 0.0 | 2.0 | 0.00 | 0.00 | 0.00 | 83 | 1008.5 |
| 20260901081503 | 59 | 215 | 0.0 | 2.0 | 0.00 | 0.00 | 0.00 | 83 | 1008.5 |
| 20260901081003 | 59 | 207 | 0.0 | 1.0 | 0.00 | 0.00 | 0.00 | 83 | 1008.5 |
| 20260901080503 | 59 | 207 | 0.0 | 1.0 | 0.00 | 0.00 | 0.00 | 82 | 1008.5 |
| 20260901080003 | 59 | 0 | 0.0 | 0.0 | 0.00 | 0.00 | 0.00 | 82 | 1008.4 |
| 20260901075503 | 60 | 200 | 0.0 | 4.0 | 0.00 | 0.00 | 0.00 | 82 | 1008.4 |
| 20260901075003 | 60 | 204 | 1.0 | 4.0 | 0.00 | 0.00 | 0.00 | 82 | 1008.3 |
| 20260901074503 | 60 | 216 | 1.0 | 10.0 | 0.00 | 0.00 | 0.00 | 82 | 1008.3 |
| 20260901074003 | 60 | 211 | 1.0 | 10.0 | 0.00 | 0.00 | 0.00 | 82 | 1008.3 |
| 20260901073503 | 60 | 193 | 1.0 | 5.0 | 0.00 | 0.00 | 0.00 | 82 | 1008.2 |
| 20260901073003 | 60 | 188 | 1.0 | 7.0 | 0.00 | 0.00 | 0.00 | 82 | 1008.3 |
| 20260901072524 | 60 | 186 | 1.0 | 7.0 | 0.00 | 0.00 | 0.00 | 81 | 1008.3 |
| 20260901072003 | 60 | 187 | 1.0 | 6.0 | 0.00 | 0.00 | 0.00 | 81 | 1008.3 |
| 20260901071502 | 60 | 187 | 1.0 | 6.0 | 0.00 | 0.00 | 0.00 | 80 | 1008.2 |
| 20260901071003 | 60 | 163 | 1.0 | 6.0 | 0.00 | 0.00 | 0.00 | 80 | 1008.2 |
| 20260901070503 | 61 | 147 | 1.0 | 6.0 | 0.00 | 0.00 | 0.00 | 79 | 1008.1 |
| 20260901070003 | 61 | 157 | 1.0 | 5.0 | 0.00 | 0.00 | 0.00 | 78 | 1008.1 |
| 20260901065503 | 61 | 171 | 1.0 | 6.0 | 0.00 | 0.00 | 0.00 | 78 | 1008.0 |
| 20260901065003 | 61 | 173 | 0.0 | 6.0 | 0.00 | 0.00 | 0.00 | 77 | 1007.9 |
| 20260901064503 | 62 | 167 | 0.0 | 3.0 | 0.00 | 0.00 | 0.00 | 76 | 1007.9 |
| 20260901064024 | 62 | 144 | 0.0 | 3.0 | 0.00 | 0.00 | 0.00 | 76 | 1007.9 |
| 20260901063503 | 62 | 128 | 0.0 | 6.0 | 0.00 | 0.00 | 0.00 | 75 | 1007.8 |
| 20260901063003 | 63 | 117 | 0.0 | 6.0 | 0.00 | 0.00 | 0.00 | 74 | 1007.7 |
| 20260901062503 | 63 | 119 | 0.0 | 4.0 | 0.00 | 0.00 | 0.00 | 74 | 1007.6 |
| 20260901062003 | 63 | 122 | 0.0 | 4.0 | 0.00 | 0.00 | 0.00 | 73 | 1007.5 |
| 20260901061503 | 64 | 168 | 0.0 | 5.0 | 0.00 | 0.00 | 0.00 | 72 | 1007.5 |
| 20260901061024 | 64 | 177 | 0.0 | 5.0 | 0.00 | 0.00 | 0.00 | 72 | 1007.3 |
| 20260901060503 | 64 | 194 | 0.0 | 2.0 | 0.00 | 0.00 | 0.00 | 71 | 1007.3 |
| 20260901060003 | 64 | 194 | 0.0 | 5.0 | 0.00 | 0.00 | 0.00 | 71 | 1007.3 |
| 20260901055503 | 64 | 191 | 0.0 | 5.0 | 0.00 | 0.00 | 0.00 | 70 | 1007.2 |
| 20260901055024 | 65 | 170 | 0.0 | 3.0 | 0.00 | 0.00 | 0.00 | 70 | 1007.3 |
| 20260901054502 | 65 | 165 | 0.0 | 3.0 | 0.00 | 0.00 | 0.00 | 69 | 1007.3 |
| 20260901054003 | 65 | 192 | 0.0 | 2.0 | 0.00 | 0.00 | 0.00 | 69 | 1007.3 |
| 20260901053503 | 66 | 183 | 0.0 | 2.0 | 0.00 | 0.00 | 0.00 | 68 | 1007.2 |
| 20260901053003 | 66 | 166 | 0.0 | 2.0 | 0.00 | 0.00 | 0.00 | 68 | 1007.2 |
| 20260901052503 | 66 | 170 | 1.0 | 5.0 | 0.00 | 0.00 | 0.00 | 67 | 1007.1 |
| 20260901052003 | 66 | 173 | 1.0 | 6.0 | 0.00 | 0.00 | 0.00 | 67 | 1007.1 |
| 20260901051503 | 67 | 173 | 1.0 | 6.0 | 0.00 | 0.00 | 0.00 | 66 | 1007.0 |
| 20260901051003 | 67 | 175 | 0.0 | 3.0 | 0.00 | 0.00 | 0.00 | 65 | 1006.9 |
| 20260901050503 | 68 | 181 | 0.0 | 6.0 | 0.00 | 0.00 | 0.00 | 64 | 1006.8 |
| 20260901050003 | 68 | 180 | 1.0 | 6.0 | 0.00 | 0.00 | 0.00 | 63 | 1006.7 |
| 20260901045503 | 68 | 181 | 1.0 | 4.0 | 0.00 | 0.00 | 0.00 | 63 | 1006.6 |
| 20260901045003 | 69 | 182 | 0.0 | 3.0 | 0.00 | 0.00 | 0.00 | 62 | 1006.7 |
| 20260901044505 | 69 | 184 | 0.0 | 2.0 | 0.00 | 0.00 | 0.00 | 61 | 1006.6 |
| 20260901044024 | 70 | 191 | 0.0 | 2.0 | 0.00 | 0.00 | 0.00 | 61 | 1006.6 |
| 20260901043503 | 70 | 189 | 0.0 | 2.0 | 0.00 | 0.00 | 0.00 | 60 | 1006.5 |
| 20260901043003 | 70 | 191 | 0.0 | 2.0 | 0.00 | 0.00 | 0.00 | 59 | 1006.5 |
| 20260901042503 | 71 | 192 | 0.0 | 1.0 | 0.00 | 0.00 | 0.00 | 59 | 1006.4 |
| 20260901042003 | 71 | 190 | 0.0 | 1.0 | 0.00 | 0.00 | 0.00 | 58 | 1006.3 |
| 20260901041524 | 72 | 189 | 0.0 | 1.0 | 0.00 | 0.00 | 0.00 | 58 | 1006.2 |
| 20260901041003 | 72 | 186 | 0.0 | 1.0 | 0.00 | 0.00 | 0.00 | 57 | 1006.1 |
| 20260901040503 | 72 | 0 | 0.0 | 0.0 | 0.00 | 0.00 | 0.00 | 56 | 1006.0 |
| 20260901040003 | 73 | 186 | 0.0 | 1.0 | 0.00 | 0.00 | 0.00 | 55 | 1005.8 |
| 20260901035503 | 73 | 183 | 0.0 | 1.0 | 0.00 | 0.00 | 0.00 | 54 | 1005.8 |
| 20260901035024 | 73 | 182 | 0.0 | 1.0 | 0.00 | 0.00 | 0.00 | 53 | 1005.7 |
| 20260901034503 | 73 | 0 | 0.0 | 0.0 | 0.00 | 0.00 | 0.00 | 51 | 1005.6 |
| 20260901034003 | 74 | 0 | 0.0 | 0.0 | 0.00 | 0.00 | 0.00 | 50 | 1005.5 |
| 20260901033503 | 74 | 0 | 0.0 | 0.0 | 0.00 | 0.00 | 0.00 | 50 | 1005.5 |
| 20260901033002 | 74 | 0 | 0.0 | 0.0 | 0.00 | 0.00 | 0.00 | 50 | 1005.4 |
| 20260901032503 | 75 | 0 | 0.0 | 0.0 | 0.00 | 0.00 | 0.00 | 49 | 1005.3 |
| 20260901032003 | 75 | 0 | 0.0 | 0.0 | 0.00 | 0.00 | 0.00 | 48 | 1005.3 |
| 20260901031503 | 76 | 0 | 0.0 | 0.0 | 0.00 | 0.00 | 0.00 | 48 | 1005.2 |
| 20260901031003 | 76 | 0 | 0.0 | 0.0 | 0.00 | 0.00 | 0.00 | 46 | 1005.1 |
| 20260901030503 | 76 | 0 | 0.0 | 0.0 | 0.00 | 0.00 | 0.00 | 46 | 1005.1 |
| 20260901030003 | 77 | 0 | 0.0 | 0.0 | 0.00 | 0.00 | 0.00 | 46 | 1005.2 |
| 20260901025503 | 77 | 0 | 0.0 | 0.0 | 0.00 | 0.00 | 0.00 | 45 | 1005.2 |
| 20260901025003 | 78 | 0 | 0.0 | 0.0 | 0.00 | 0.00 | 0.00 | 44 | 1005.2 |
| 20260901024503 | 78 | 0 | 0.0 | 0.0 | 0.00 | 0.00 | 0.00 | 44 | 1005.1 |
| 20260901024003 | 79 | 0 | 0.0 | 0.0 | 0.00 | 0.00 | 0.00 | 43 | 1005.2 |
| 20260901023503 | 79 | 0 | 0.0 | 0.0 | 0.00 | 0.00 | 0.00 | 42 | 1005.2 |
| 20260901023003 | 79 | 0 | 0.0 | 0.0 | 0.00 | 0.00 | 0.00 | 42 | 1005.2 |
| 20260901022503 | 79 | 0 | 0.0 | 0.0 | 0.00 | 0.00 | 0.00 | 42 | 1005.2 |
| 20260901022003 | 80 | 0 | 0.0 | 0.0 | 0.00 | 0.00 | 0.00 | 42 | 1005.2 |
| 20260901021524 | 80 | 0 | 0.0 | 0.0 | 0.00 | 0.00 | 0.00 | 41 | 1005.1 |
| 20260901021002 | 80 | 0 | 0.0 | 0.0 | 0.00 | 0.00 | 0.00 | 41 | 1005.2 |
| 20260901020503 | 80 | 190 | 0.0 | 1.0 | 0.00 | 0.00 | 0.00 | 41 | 1005.1 |
| 20260901020003 | 80 | 202 | 0.0 | 2.0 | 0.00 | 0.00 | 0.00 | 40 | 1005.2 |
| 20260901015503 | 81 | 209 | 0.0 | 2.0 | 0.00 | 0.00 | 0.00 | 41 | 1005.2 |
| 20260901015024 | 81 | 0 | 0.0 | 0.0 | 0.00 | 0.00 | 0.00 | 40 | 1005.2 |
| 20260901014503 | 81 | 0 | 0.0 | 0.0 | 0.00 | 0.00 | 0.00 | 40 | 1005.2 |
| 20260901014003 | 81 | 0 | 0.0 | 0.0 | 0.00 | 0.00 | 0.00 | 40 | 1005.1 |
| 20260901013503 | 81 | 0 | 0.0 | 0.0 | 0.00 | 0.00 | 0.00 | 40 | 1005.2 |
| 20260901013024 | 82 | 0 | 0.0 | 0.0 | 0.00 | 0.00 | 0.00 | 40 | 1005.2 |
| 20260901012503 | 82 | 207 | 0.0 | 1.0 | 0.00 | 0.00 | 0.00 | 40 | 1005.2 |
| 20260901012003 | 82 | 167 | 0.0 | 2.0 | 0.00 | 0.00 | 0.00 | 39 | 1005.3 |
| 20260901011503 | 82 | 156 | 0.0 | 2.0 | 0.00 | 0.00 | 0.00 | 39 | 1005.2 |
| 20260901011003 | 82 | 206 | 0.0 | 2.0 | 0.00 | 0.00 | 0.00 | 38 | 1005.2 |
| 20260901010524 | 82 | 153 | 0.0 | 3.0 | 0.00 | 0.00 | 0.00 | 38 | 1005.2 |
| 20260901010003 | 82 | 121 | 0.0 | 3.0 | 0.00 | 0.00 | 0.00 | 38 | 1005.4 |
| 20260901005503 | 82 | 111 | 0.0 | 3.0 | 0.00 | 0.00 | 0.00 | 38 | 1005.3 |
| 20260901005003 | 82 | 0 | 0.0 | 0.0 | 0.00 | 0.00 | 0.00 | 38 | 1005.4 |
| 20260901004503 | 82 | 193 | 0.0 | 2.0 | 0.00 | 0.00 | 0.00 | 38 | 1005.4 |
| 20260901004003 | 82 | 193 | 0.0 | 2.0 | 0.00 | 0.00 | 0.00 | 38 | 1005.4 |
| 20260901003503 | 83 | 205 | 0.0 | 1.0 | 0.00 | 0.00 | 0.00 | 37 | 1005.5 |
| 20260901003003 | 83 | 213 | 0.0 | 2.0 | 0.00 | 0.00 | 0.00 | 39 | 1005.5 |
| 20260901002524 | 83 | 196 | 0.0 | 2.0 | 0.00 | 0.00 | 0.00 | 38 | 1005.5 |
| 20260901002024 | 83 | 186 | 0.0 | 2.0 | 0.00 | 0.00 | 0.00 | 38 | 1005.5 |
| 20260901001503 | 83 | 185 | 0.0 | 2.0 | 0.00 | 0.00 | 0.00 | 38 | 1005.5 |
| 20260901001003 | 83 | 180 | 0.0 | 1.0 | 0.00 | 0.00 | 0.00 | 38 | 1005.5 |
| 20260901000503 | 84 | 180 | 0.0 | 2.0 | 0.00 | 0.00 | 0.00 | 38 | 1005.5 |
| 20260901000003 | 84 | 179 | 0.0 | 2.0 | 0.00 | 0.00 | 0.00 | 38 | 1005.5 |
| 20260831235503 | 84 | 185 | 0.0 | 1.0 | 0.00 | 0.00 | 0.00 | 38 | 1005.5 |
| 20260831235024 | 84 | 203 | 0.0 | 1.0 | 0.00 | 0.00 | 0.00 | 38 | 1005.6 |
| 20260831234525 | 84 | 165 | 0.0 | 3.0 | 0.00 | 0.00 | 0.00 | 38 | 1005.6 |
| 20260831234024 | 85 | 163 | 0.0 | 3.0 | 0.00 | 0.00 | 0.00 | 38 | 1005.6 |
| 20260831233503 | 85 | 193 | 0.0 | 2.0 | 0.00 | 0.00 | 0.00 | 38 | 1005.6 |
| 20260831233003 | 85 | 193 | 0.0 | 2.0 | 0.00 | 0.00 | 0.00 | 38 | 1005.6 |
| 20260831232503 | 85 | 0 | 0.0 | 0.0 | 0.00 | 0.00 | 0.00 | 38 | 1005.5 |
| 20260831232003 | 85 | 94 | 0.0 | 1.0 | 0.00 | 0.00 | 0.00 | 38 | 1005.6 |
| 20260831231524 | 85 | 149 | 0.0 | 1.0 | 0.00 | 0.00 | 0.00 | 38 | 1005.6 |
| 20260831231003 | 85 | 173 | 0.0 | 1.0 | 0.00 | 0.00 | 0.00 | 38 | 1005.7 |
| 20260831230503 | 85 | 178 | 0.0 | 1.0 | 0.00 | 0.00 | 0.00 | 38 | 1005.6 |
| 20260831230024 | 85 | 180 | 0.0 | 2.0 | 0.00 | 0.00 | 0.00 | 38 | 1005.6 |
| 20260831225503 | 85 | 205 | 0.0 | 4.0 | 0.00 | 0.00 | 0.00 | 38 | 1005.7 |
| 20260831225003 | 85 | 217 | 0.0 | 4.0 | 0.00 | 0.00 | 0.00 | 38 | 1005.8 |
| 20260831224503 | 85 | 222 | 0.0 | 4.0 | 0.00 | 0.00 | 0.00 | 38 | 1005.8 |
| 20260831224003 | 84 | 116 | 0.0 | 2.0 | 0.00 | 0.00 | 0.00 | 39 | 1005.9 |
| 20260831223504 | 85 | 120 | 0.0 | 2.0 | 0.00 | 0.00 | 0.00 | 38 | 1005.9 |
| 20260831223003 | 85 | 142 | 0.0 | 1.0 | 0.00 | 0.00 | 0.00 | 39 | 1005.8 |
| 20260831222524 | 84 | 125 | 0.0 | 1.0 | 0.00 | 0.00 | 0.00 | 39 | 1005.8 |
| 20260831222003 | 84 | 236 | 0.0 | 2.0 | 0.00 | 0.00 | 0.00 | 39 | 1006.0 |
| 20260831221503 | 84 | 222 | 0.0 | 2.0 | 0.00 | 0.00 | 0.00 | 39 | 1006.0 |
| 20260831221003 | 84 | 187 | 0.0 | 1.0 | 0.00 | 0.00 | 0.00 | 39 | 1006.1 |
| 20260831220503 | 84 | 112 | 0.0 | 4.0 | 0.00 | 0.00 | 0.00 | 40 | 1006.1 |
| 20260831220003 | 84 | 140 | 0.0 | 4.0 | 0.00 | 0.00 | 0.00 | 39 | 1006.1 |
| 20260831215524 | 84 | 204 | 0.0 | 3.0 | 0.00 | 0.00 | 0.00 | 39 | 1006.2 |
| 20260831215003 | 84 | 172 | 0.0 | 2.0 | 0.00 | 0.00 | 0.00 | 39 | 1006.2 |
| 20260831214503 | 84 | 0 | 0.0 | 0.0 | 0.00 | 0.00 | 0.00 | 39 | 1006.3 |
| 20260831214003 | 84 | 194 | 0.0 | 6.0 | 0.00 | 0.00 | 0.00 | 39 | 1006.3 |
| 20260831213503 | 85 | 194 | 0.0 | 6.0 | 0.00 | 0.00 | 0.00 | 38 | 1006.4 |
| 20260831213003 | 85 | 0 | 0.0 | 0.0 | 0.00 | 0.00 | 0.00 | 37 | 1006.4 |
| 20260831212503 | 85 | 0 | 0.0 | 0.0 | 0.00 | 0.00 | 0.00 | 37 | 1006.5 |
| 20260831212024 | 85 | 278 | 0.0 | 1.0 | 0.00 | 0.00 | 0.00 | 37 | 1006.5 |
| 20260831211503 | 85 | 291 | 0.0 | 2.0 | 0.00 | 0.00 | 0.00 | 37 | 1006.5 |
| 20260831211024 | 85 | 296 | 0.0 | 2.0 | 0.00 | 0.00 | 0.00 | 38 | 1006.6 |
| 20260831210503 | 84 | 0 | 0.0 | 0.0 | 0.00 | 0.00 | 0.00 | 38 | 1006.7 |
| 20260831210003 | 84 | 0 | 0.0 | 0.0 | 0.00 | 0.00 | 0.00 | 38 | 1006.7 |
| 20260831205503 | 83 | 0 | 0.0 | 0.0 | 0.00 | 0.00 | 0.00 | 39 | 1006.7 |
| 20260831205003 | 83 | 0 | 0.0 | 0.0 | 0.00 | 0.00 | 0.00 | 39 | 1006.8 |
| 20260831204503 | 83 | 238 | 0.0 | 1.0 | 0.00 | 0.00 | 0.00 | 40 | 1006.8 |
| 20260831204003 | 82 | 262 | 0.0 | 3.0 | 0.00 | 0.00 | 0.00 | 41 | 1006.8 |
| 20260831203524 | 82 | 276 | 0.0 | 3.0 | 0.00 | 0.00 | 0.00 | 40 | 1006.8 |
| 20260831203003 | 82 | 272 | 0.0 | 1.0 | 0.00 | 0.00 | 0.00 | 41 | 1006.9 |
| 20260831202503 | 82 | 276 | 0.0 | 1.0 | 0.00 | 0.00 | 0.00 | 41 | 1007.0 |
| 20260831202003 | 82 | 325 | 0.0 | 2.0 | 0.00 | 0.00 | 0.00 | 40 | 1007.0 |
| 20260831201504 | 82 | 323 | 0.0 | 3.0 | 0.00 | 0.00 | 0.00 | 41 | 1007.1 |
| 20260831201003 | 82 | 321 | 0.0 | 3.0 | 0.00 | 0.00 | 0.00 | 42 | 1007.1 |
| 20260831200503 | 82 | 0 | 0.0 | 0.0 | 0.00 | 0.00 | 0.00 | 42 | 1007.1 |
| 20260831200024 | 81 | 0 | 0.0 | 0.0 | 0.00 | 0.00 | 0.00 | 43 | 1007.2 |
| 20260831195503 | 80 | 0 | 0.0 | 0.0 | 0.00 | 0.00 | 0.00 | 44 | 1007.3 |
| 20260831195003 | 79 | 301 | 0.0 | 5.0 | 0.00 | 0.00 | 0.00 | 45 | 1007.4 |
| 20260831194503 | 79 | 295 | 0.0 | 5.0 | 0.00 | 0.00 | 0.00 | 46 | 1007.5 |
| 20260831194003 | 79 | 281 | 0.0 | 2.0 | 0.00 | 0.00 | 0.00 | 46 | 1007.5 |
| 20260831193503 | 78 | 0 | 0.0 | 0.0 | 0.00 | 0.00 | 0.00 | 46 | 1007.6 |
| 20260831193003 | 78 | 0 | 0.0 | 0.0 | 0.00 | 0.00 | 0.00 | 48 | 1007.7 |
| 20260831192503 | 77 | 0 | 0.0 | 0.0 | 0.00 | 0.00 | 0.00 | 48 | 1007.7 |
| 20260831192024 | 77 | 294 | 0.0 | 3.0 | 0.00 | 0.00 | 0.00 | 49 | 1007.8 |
| 20260831191503 | 76 | 293 | 0.0 | 3.0 | 0.00 | 0.00 | 0.00 | 50 | 1007.9 |
| 20260831191003 | 76 | 0 | 0.0 | 0.0 | 0.00 | 0.00 | 0.00 | 51 | 1007.9 |
| 20260831190503 | 75 | 0 | 0.0 | 0.0 | 0.00 | 0.00 | 0.00 | 51 | 1007.9 |
| 20260831190003 | 75 | 0 | 0.0 | 0.0 | 0.00 | 0.00 | 0.00 | 54 | 1008.1 |
| 20260831185503 | 74 | 0 | 0.0 | 0.0 | 0.00 | 0.00 | 0.00 | 53 | 1008.1 |
| 20260831185003 | 73 | 0 | 0.0 | 0.0 | 0.00 | 0.00 | 0.00 | 55 | 1008.2 |
| 20260831184503 | 72 | 0 | 0.0 | 0.0 | 0.00 | 0.00 | 0.00 | 56 | 1008.3 |
| 20260831184003 | 72 | 328 | 0.0 | 2.0 | 0.00 | 0.00 | 0.00 | 55 | 1008.2 |
| 20260831183503 | 72 | 328 | 0.0 | 2.0 | 0.00 | 0.00 | 0.00 | 56 | 1008.3 |
| 20260831183003 | 72 | 330 | 0.0 | 1.0 | 0.00 | 0.00 | 0.00 | 57 | 1008.3 |
| 20260831182503 | 72 | 302 | 0.0 | 2.0 | 0.00 | 0.00 | 0.00 | 58 | 1008.4 |
| 20260831182003 | 72 | 296 | 0.0 | 2.0 | 0.00 | 0.00 | 0.00 | 57 | 1008.5 |
| 20260831181524 | 71 | 264 | 0.0 | 1.0 | 0.00 | 0.00 | 0.00 | 59 | 1008.5 |
| 20260831181003 | 71 | 0 | 0.0 | 0.0 | 0.00 | 0.00 | 0.00 | 59 | 1008.7 |
| 20260831180524 | 70 | 308 | 0.0 | 1.0 | 0.00 | 0.00 | 0.00 | 60 | 1008.7 |
| 20260831180003 | 70 | 276 | 0.0 | 1.0 | 0.00 | 0.00 | 0.00 | 60 | 1008.7 |
| 20260831175503 | 70 | 268 | 0.0 | 1.0 | 0.00 | 0.00 | 0.00 | 61 | 1008.7 |
| 20260831175003 | 70 | 0 | 0.0 | 0.0 | 0.00 | 0.00 | 0.00 | 61 | 1008.9 |
| 20260831174503 | 69 | 0 | 0.0 | 0.0 | 0.00 | 0.00 | 0.00 | 63 | 1008.9 |
| 20260831174003 | 69 | 288 | 0.0 | 1.0 | 0.00 | 0.00 | 0.00 | 64 | 1008.9 |
| 20260831173503 | 68 | 288 | 0.0 | 1.0 | 0.00 | 0.00 | 0.00 | 65 | 1009.0 |
| 20260831173024 | 67 | 0 | 0.0 | 0.0 | 0.00 | 0.00 | 0.00 | 65 | 1009.0 |
| 20260831172503 | 67 | 0 | 0.0 | 0.0 | 0.00 | 0.00 | 0.00 | 66 | 1009.0 |
| 20260831172003 | 66 | 57 | 0.0 | 1.0 | 0.00 | 0.00 | 0.00 | 69 | 1009.1 |
| 20260831171503 | 66 | 1 | 0.0 | 1.0 | 0.00 | 0.00 | 0.00 | 68 | 1009.1 |
| 20260831171003 | 66 | 328 | 0.0 | 1.0 | 0.00 | 0.00 | 0.00 | 70 | 1009.2 |
| 20260831170503 | 65 | 322 | 0.0 | 3.0 | 0.00 | 0.00 | 0.00 | 72 | 1009.2 |
| 20260831170003 | 64 | 322 | 0.0 | 3.0 | 0.00 | 0.00 | 0.00 | 72 | 1009.3 |
| 20260831165524 | 64 | 322 | 0.0 | 3.0 | 0.00 | 0.00 | 0.00 | 73 | 1009.2 |
| 20260831165003 | 64 | 0 | 0.0 | 0.0 | 0.00 | 0.00 | 0.00 | 74 | 1009.2 |
| 20260831164503 | 63 | 284 | 0.0 | 1.0 | 0.00 | 0.00 | 0.00 | 74 | 1009.2 |
| 20260831164003 | 63 | 284 | 0.0 | 1.0 | 0.00 | 0.00 | 0.00 | 75 | 1009.3 |
| 20260831163503 | 62 | 0 | 0.0 | 0.0 | 0.00 | 0.00 | 0.00 | 77 | 1009.3 |
| 20260831163003 | 62 | 0 | 0.0 | 0.0 | 0.00 | 0.00 | 0.00 | 78 | 1009.4 |
| 20260831162524 | 61 | 0 | 0.0 | 0.0 | 0.00 | 0.00 | 0.00 | 79 | 1009.4 |
| 20260831162003 | 61 | 0 | 0.0 | 0.0 | 0.00 | 0.00 | 0.00 | 81 | 1009.4 |
| 20260831161524 | 60 | 0 | 0.0 | 0.0 | 0.00 | 0.00 | 0.00 | 81 | 1009.5 |
| 20260831161003 | 60 | 0 | 0.0 | 0.0 | 0.00 | 0.00 | 0.00 | 82 | 1009.5 |
| 20260831160503 | 59 | 0 | 0.0 | 0.0 | 0.00 | 0.00 | 0.00 | 83 | 1009.5 |
| 20260831160003 | 59 | 0 | 0.0 | 0.0 | 0.00 | 0.00 | 0.00 | 84 | 1009.6 |
| 20260831155503 | 58 | 0 | 0.0 | 0.0 | 0.00 | 0.00 | 0.00 | 85 | 1009.6 |
| 20260831155003 | 58 | 0 | 0.0 | 0.0 | 0.00 | 0.00 | 0.00 | 85 | 1009.6 |
| 20260831154524 | 58 | 0 | 0.0 | 0.0 | 0.00 | 0.00 | 0.00 | 86 | 1009.6 |
| 20260831154003 | 58 | 335 | 0.0 | 3.0 | 0.00 | 0.00 | 0.00 | 86 | 1009.6 |
| 20260831153503 | 57 | 333 | 0.0 | 3.0 | 0.00 | 0.00 | 0.00 | 87 | 1009.6 |
| 20260831153003 | 57 | 324 | 0.0 | 2.0 | 0.00 | 0.00 | 0.00 | 88 | 1009.6 |
| 20260831152503 | 57 | 0 | 0.0 | 0.0 | 0.00 | 0.00 | 0.00 | 90 | 1009.6 |
| 20260831152003 | 56 | 0 | 0.0 | 0.0 | 0.00 | 0.00 | 0.00 | 90 | 1009.7 |
| 20260831151503 | 56 | 0 | 0.0 | 0.0 | 0.00 | 0.00 | 0.00 | 91 | 1009.7 |
| 20260831151003 | 56 | 0 | 0.0 | 0.0 | 0.00 | 0.00 | 0.00 | 92 | 1009.7 |
| 20260831150503 | 56 | 0 | 0.0 | 0.0 | 0.00 | 0.00 | 0.00 | 92 | 1009.8 |
| 20260831150003 | 55 | 0 | 0.0 | 0.0 | 0.00 | 0.00 | 0.00 | 93 | 1009.8 |
| 20260831145503 | 55 | 0 | 0.0 | 0.0 | 0.00 | 0.00 | 0.00 | 93 | 1009.8 |
| 20260831145003 | 54 | 0 | 0.0 | 0.0 | 0.00 | 0.00 | 0.00 | 93 | 1009.8 |
| 20260831144524 | 54 | 0 | 0.0 | 0.0 | 0.00 | 0.00 | 0.00 | 93 | 1009.8 |
| 20260831144003 | 53 | 0 | 0.0 | 0.0 | 0.00 | 0.00 | 0.00 | 93 | 1009.8 |
| 20260831143503 | 53 | 0 | 0.0 | 0.0 | 0.00 | 0.00 | 0.00 | 93 | 1009.8 |
| 20260831143003 | 53 | 0 | 0.0 | 0.0 | 0.00 | 0.00 | 0.00 | 92 | 1009.8 |
| 20260831142503 | 52 | 0 | 0.0 | 0.0 | 0.00 | 0.00 | 0.00 | 91 | 1009.8 |
| 20260831142024 | 52 | 0 | 0.0 | 0.0 | 0.00 | 0.00 | 0.00 | 91 | 1009.8 |
| 20260831141503 | 52 | 0 | 0.0 | 0.0 | 0.00 | 0.00 | 0.00 | 90 | 1009.8 |
| 20260831141003 | 52 | 0 | 0.0 | 0.0 | 0.00 | 0.00 | 0.00 | 89 | 1009.7 |
| 20260831140503 | 52 | 0 | 0.0 | 0.0 | 0.00 | 0.00 | 0.00 | 89 | 1009.8 |
| 20260831140003 | 52 | 0 | 0.0 | 0.0 | 0.00 | 0.00 | 0.00 | 89 | 1009.9 |
| 20260831135503 | 53 | 0 | 0.0 | 0.0 | 0.00 | 0.00 | 0.00 | 89 | 1009.9 |
| 20260831135003 | 53 | 0 | 0.0 | 0.0 | 0.00 | 0.00 | 0.00 | 88 | 1009.9 |
| 20260831134503 | 53 | 0 | 0.0 | 0.0 | 0.00 | 0.00 | 0.00 | 88 | 1009.9 |
| 20260831134003 | 53 | 0 | 0.0 | 0.0 | 0.00 | 0.00 | 0.00 | 87 | 1009.9 |
| 20260831133503 | 53 | 0 | 0.0 | 0.0 | 0.00 | 0.00 | 0.00 | 87 | 1009.9 |
| 20260831133003 | 54 | 0 | 0.0 | 0.0 | 0.00 | 0.00 | 0.00 | 87 | 1009.8 |
| 20260831132503 | 54 | 0 | 0.0 | 0.0 | 0.00 | 0.00 | 0.00 | 87 | 1009.9 |
| 20260831132024 | 54 | 0 | 0.0 | 0.0 | 0.00 | 0.00 | 0.00 | 87 | 1009.9 |
| 20260831131503 | 54 | 0 | 0.0 | 0.0 | 0.00 | 0.00 | 0.00 | 88 | 1010.0 |
| 20260831131024 | 54 | 0 | 0.0 | 0.0 | 0.00 | 0.00 | 0.00 | 87 | 1010.0 |
| 20260831130503 | 55 | 0 | 0.0 | 0.0 | 0.00 | 0.00 | 0.00 | 87 | 1009.9 |
| 20260831130024 | 55 | 0 | 0.0 | 0.0 | 0.00 | 0.00 | 0.00 | 87 | 1010.0 |
| 20260831125503 | 55 | 0 | 0.0 | 0.0 | 0.00 | 0.00 | 0.00 | 87 | 1010.0 |
| 20260831125003 | 55 | 0 | 0.0 | 0.0 | 0.00 | 0.00 | 0.00 | 87 | 1010.1 |
| 20260831124524 | 55 | 0 | 0.0 | 0.0 | 0.00 | 0.00 | 0.00 | 87 | 1010.1 |